Midland, MI

3:30 PM EDT on June 25, 2017 (GMT -0400)
Barstow

Weather History for KIKW - May, 2014

Change the Weather History Date:

Monday, May 26, 2014

  Actual Average (KMBS) Record (KMBS)
Temperature  
Mean Temperature 68 °F -  
Max Temperature 85 °F 67 °F 86 °F (2016)
Min Temperature 50 °F 46 °F 41 °F (2002)
Cooling Degree Days 2    
Growing Degree Days 18 (Base 50)    
Moisture  
Dew Point 54 °F    
Average Humidity 60    
Maximum Humidity 94    
Minimum Humidity 32    
Precipitation  
Precipitation 0.00 in - - ()
Sea Level Pressure  
Sea Level Pressure 29.98 in    
Wind  
Wind Speed 4 mph (WSW)    
Max Wind Speed 17 mph    
Max Gust Speed 24 mph    
Visibility 10 miles    
Events      
Averages and records for this station are not official NWS values.
T = Trace of Precipitation, MM = Missing Value Source: NWS Daily Summary

Daily Weather History Graph

Daily Weather History Graph

Search for Another Location

Airport or City:

Trip Planner

Search our weather history database for the weather conditions in past years. The results will help you decide how hot, cold, wet, or windy it might be!

Date:

Astronomy

May. 26, 2014 Rise Set
Actual Time 6:02 AM EDT 9:06 PM EDT
Civil Twilight 5:27 AM EDT 9:41 PM EDT
Nautical Twilight 4:43 AM EDT 10:25 PM EDT
Astronomical Twilight 3:51 AM EDT 11:18 PM EDT
Moon 4:48 AM EDT (5/26) 7:04 PM EDT (5/26)
Length of Visible Light 16h 13m
Length of Day
15h 04m
Waning Crescent, 5% of the Moon is Illuminated
May 26
Waning Crescent
May 28
New
Jun 5
First Quarter
Jun 13
Full
Jun 19
Last Quarter

Hourly Weather History & Observations

Time (EDT) Temp. Heat Index Dew Point Humidity Pressure Visibility Wind Dir Wind Speed Gust Speed Precip Events Conditions
12:12 AM 57.7 °F - 50.9 °F 78% 30.04 in 10.0 mi Calm Calm - N/A   Clear
12:32 AM 57.0 °F - 50.9 °F 80% 30.04 in 10.0 mi Calm Calm - N/A   Clear
12:51 AM 56.3 °F - 51.6 °F 84% 30.04 in 10.0 mi Calm Calm - N/A   Clear
1:12 AM 56.5 °F - 50.2 °F 79% 30.04 in 10.0 mi Calm Calm - N/A   Clear
1:32 AM 56.3 °F - 50.4 °F 80% 30.04 in 10.0 mi Calm Calm - N/A   Clear
1:51 AM 56.3 °F - 50.9 °F 82% 30.04 in 10.0 mi Calm Calm - N/A   Clear
2:12 AM 55.8 °F - 51.1 °F 84% 30.04 in 10.0 mi Calm Calm - N/A   Clear
2:32 AM 55.4 °F - 52.0 °F 88% 30.04 in 10.0 mi Calm Calm - N/A   Clear
2:52 AM 54.5 °F - 51.3 °F 89% 30.04 in 10.0 mi Calm Calm - N/A   Clear
3:12 AM 52.7 °F - 50.0 °F 91% 30.04 in 10.0 mi Calm Calm - N/A   Clear
3:32 AM 53.6 °F - 50.9 °F 91% 30.03 in 10.0 mi Calm Calm - N/A   Clear
3:52 AM 53.6 °F - 50.9 °F 91% 30.03 in 10.0 mi Calm Calm - N/A   Clear
4:12 AM 52.7 °F - 49.8 °F 90% 30.03 in 10.0 mi Calm Calm - N/A   Clear
4:32 AM 53.6 °F - 50.9 °F 91% 30.03 in 10.0 mi Calm Calm - N/A   Clear
4:52 AM 53.2 °F - 50.7 °F 91% 30.03 in 10.0 mi Calm Calm - N/A   Clear
5:12 AM 51.1 °F - 48.9 °F 92% 30.03 in 10.0 mi Calm Calm - N/A   Clear
5:32 AM 50.9 °F - 48.6 °F 92% 30.03 in 10.0 mi Calm Calm - N/A   Clear
5:52 AM 50.4 °F - 48.6 °F 94% 30.04 in 10.0 mi Calm Calm - N/A   Clear
6:12 AM 51.3 °F - 49.5 °F 94% 30.03 in 10.0 mi Calm Calm - N/A   Clear
6:32 AM 51.6 °F - 49.6 °F 93% 30.04 in 10.0 mi Calm Calm - N/A   Clear
6:52 AM 52.7 °F - 50.7 °F 93% 30.04 in 10.0 mi Calm Calm - N/A   Clear
7:12 AM 54.9 °F - 52.2 °F 91% 30.04 in 10.0 mi Calm Calm - N/A   Clear
7:32 AM 57.4 °F - 54.0 °F 88% 30.04 in 10.0 mi Calm Calm - N/A   Clear
8:12 AM 62.6 °F - 54.3 °F 74% 30.04 in 10.0 mi Calm Calm - N/A   Clear
8:32 AM 65.1 °F - 53.4 °F 66% 30.04 in 10.0 mi Calm Calm - N/A   Clear
8:52 AM 67.1 °F - 53.8 °F 62% 30.04 in 10.0 mi SW 4.6 mph - N/A   Clear
9:12 AM 70.3 °F - 54.1 °F 56% 30.03 in 10.0 mi WSW 8.1 mph - N/A   Clear
9:32 AM 73.4 °F - 55.2 °F 53% 30.02 in 10.0 mi WSW 5.8 mph - N/A   Clear
9:52 AM 75.0 °F - 55.9 °F 51% 30.02 in 10.0 mi SW 10.4 mph - N/A   Clear
10:12 AM 76.3 °F - 56.3 °F 50% 30.02 in 10.0 mi WSW 12.7 mph 18.4 mph N/A   Clear
10:32 AM 78.1 °F - 56.7 °F 48% 30.02 in 10.0 mi WSW 6.9 mph 19.6 mph N/A   Clear
10:52 AM 79.7 °F - 57.4 °F 46% 30.01 in 10.0 mi SW 10.4 mph 16.1 mph N/A   Clear
11:12 AM 80.6 °F 80.7 °F 56.8 °F 44% 30.02 in 10.0 mi WSW 15.0 mph 20.7 mph N/A   Scattered Clouds
11:32 AM 81.3 °F 81.1 °F 56.5 °F 42% 30.01 in 10.0 mi WSW 11.5 mph 17.3 mph N/A   Mostly Cloudy
11:52 AM 81.1 °F 81.0 °F 55.9 °F 42% 30.01 in 10.0 mi WSW 8.1 mph - N/A   Mostly Cloudy
12:32 PM 81.1 °F - 52.3 °F 37% 30.02 in 10.0 mi SW 13.8 mph 17.3 mph N/A   Mostly Cloudy
12:52 PM 81.9 °F - 51.8 °F 35% 30.01 in 7.0 mi WSW 15.0 mph 18.4 mph N/A   Scattered Clouds
1:11 PM 80.4 °F - 52.7 °F 38% 30.00 in 10.0 mi WSW 9.2 mph 19.6 mph N/A   Scattered Clouds
1:32 PM 81.1 °F 80.6 °F 53.2 °F 38% 29.99 in 10.0 mi SW 17.3 mph 20.7 mph N/A   Clear
1:52 PM 81.1 °F - 52.7 °F 37% 29.99 in 10.0 mi WSW 10.4 mph 20.7 mph N/A   Clear
2:12 PM 82.4 °F - 52.5 °F 35% 29.99 in 10.0 mi West 12.7 mph 19.6 mph N/A   Scattered Clouds
2:32 PM 81.9 °F 81.3 °F 55.0 °F 40% 29.98 in 10.0 mi SW 9.2 mph - N/A   Mostly Cloudy
2:52 PM 82.4 °F 81.6 °F 54.5 °F 38% 29.96 in 10.0 mi WSW 5.8 mph - N/A   Scattered Clouds
3:12 PM 84.2 °F - 52.7 °F 34% 29.95 in 10.0 mi WSW 13.8 mph 18.4 mph N/A   Scattered Clouds
3:32 PM 85.3 °F - 52.3 °F 32% 29.94 in 7.0 mi West 15.0 mph 21.9 mph N/A   Clear
3:52 PM 85.1 °F 83.5 °F 53.4 °F 34% 29.93 in 10.0 mi SW 12.7 mph 20.7 mph N/A   Clear
4:12 PM 84.7 °F - 51.6 °F 32% 29.92 in 7.0 mi SW 17.3 mph 24.2 mph N/A   Clear
4:32 PM 84.7 °F - 52.0 °F 32% 29.92 in 10.0 mi SW 16.1 mph 23.0 mph N/A   Clear
4:52 PM 84.4 °F 82.8 °F 53.4 °F 34% 29.91 in 4.0 mi SW 9.2 mph 20.7 mph N/A   Haze
5:12 PM 84.7 °F 83.1 °F 53.4 °F 34% 29.90 in 10.0 mi WSW 6.9 mph 18.4 mph N/A   Clear
5:32 PM 84.9 °F 83.3 °F 54.0 °F 34% 29.89 in 10.0 mi SW 6.9 mph - N/A   Clear
5:52 PM 84.7 °F - 52.9 °F 33% 29.89 in 10.0 mi SW 12.7 mph 18.4 mph N/A   Clear
6:12 PM 84.7 °F 83.1 °F 53.2 °F 34% 29.89 in 10.0 mi WSW 11.5 mph 20.7 mph N/A   Clear
6:32 PM 84.2 °F 82.8 °F 54.0 °F 35% 29.89 in 7.0 mi WSW 13.8 mph 17.3 mph N/A   Clear
6:52 PM 82.4 °F 81.8 °F 55.8 °F 40% 29.89 in 7.0 mi WSW 9.2 mph 18.4 mph N/A   Clear
7:12 PM 82.2 °F 81.8 °F 56.7 °F 41% 29.89 in 7.0 mi West 6.9 mph - N/A   Clear
7:31 PM 81.5 °F 81.5 °F 57.4 °F 44% 29.89 in 10.0 mi WSW 5.8 mph - N/A   Clear
7:52 PM 81.0 °F 81.2 °F 58.1 °F 46% 29.90 in 10.0 mi WSW 10.4 mph 16.1 mph N/A   Clear
8:12 PM 80.6 °F 81.1 °F 59.2 °F 48% 29.90 in 10.0 mi WSW 6.9 mph - N/A   Clear
8:31 PM 79.2 °F - 59.5 °F 51% 29.90 in 10.0 mi WSW 8.1 mph - N/A   Clear
8:52 PM 78.8 °F - 60.1 °F 53% 29.90 in 10.0 mi WSW 8.1 mph - N/A   Clear
9:12 PM 77.7 °F - 60.6 °F 55% 29.89 in 10.0 mi WSW 6.9 mph - N/A   Clear
9:32 PM 77.2 °F - 60.8 °F 57% 29.90 in 10.0 mi West 3.5 mph - N/A   Clear
9:52 PM 76.3 °F - 61.0 °F 59% 29.90 in 10.0 mi Calm Calm - N/A   Clear
10:12 PM 75.2 °F - 61.5 °F 62% 29.91 in 7.0 mi WSW 3.5 mph - N/A   Clear
10:32 PM 73.6 °F - 61.9 °F 67% 29.92 in 10.0 mi WSW 3.5 mph - N/A   Clear
10:52 PM 73.6 °F - 61.7 °F 66% 29.92 in 10.0 mi WSW 6.9 mph - N/A   Scattered Clouds
11:12 PM 73.6 °F - 61.7 °F 66% 29.92 in 10.0 mi Calm Calm - N/A   Mostly Cloudy
11:32 PM 73.8 °F - 61.3 °F 65% 29.92 in 10.0 mi WSW 4.6 mph - N/A   Mostly Cloudy
11:52 PM 73.6 °F - 61.7 °F 66% 29.92 in 10.0 mi Calm Calm - N/A   Mostly Cloudy